Location: Oroua River
(40.4333°S, 175.4333°E)
Time: 15:02:07
(UTC+00:00)

ATLAS CENTAUR R/B - Pass Details

Date: 03 February 2023
Orbit: 450 x 653 km, 64.7° (Epoch: 19 March)

Event Time Altitude Azimuth Distance (km) Brightness Sun altitude
Exits shadow 16:25:34 - 354° (N) 1,807 3.6 -11.5°
Reaches altitude 10° 16:26:07 10° 357° (N) 1,592 3.3 -11.4°
Maximum altitude 16:29:22 35° 64° (ENE) 763 2.3 -10.9°
Drops below altitude 10° 16:32:45 10° 131° (SE) 1,657 5.3 -10.3°
Sets 16:35:03 0° 139° (SE) 2,570 6.4 -10.0°
